Le nostre stazioni meteo in Italia

Pubblicità
Il mio iltempo24.it
Capo Spartivento, Italia (16469): Temperatura & dewpoint: 22.05.2018 10:00:00 - 28.05.2018 10:00:00 (CEST)Capo Spartivento, Italia (16469): velocità del vento: 22.05.2018 10:00:00 - 28.05.2018 10:00:00 (CEST)Capo Spartivento, Italia (16469): direzione del vento: 22.05.2018 10:00:00 - 28.05.2018 10:00:00 (CEST)Capo Spartivento, Italia (16469): reduced air pressure: 22.05.2018 10:00:00 - 28.05.2018 10:00:00 (CEST)Capo Spartivento, Italia (16469): precipitazioni: 22.05.2018 10:00:00 - 28.05.2018 10:00:00 (CEST)
Data & Tempo tt [°C] td [°C] ff [km/h] ff [kn] dd ppp [hPa] rr [mm]
28.05.2018 10:00:00 - - - - - - -
28.05.2018 09:00:00 25,3 17,2 16 9 NNE 1017,4 -
28.05.2018 08:00:00 25,0 16,9 8 4 NNO 1017,1 -
28.05.2018 07:00:00 25,0 16,6 4 2 ONO 1016,8 -
28.05.2018 06:00:00 24,6 16,5 5 3 NNO 1016,4 -
28.05.2018 05:00:00 24,4 17,6 5 3 ONO 1016,2 -
28.05.2018 04:00:00 25,1 16,7 4 2 S 1016,3 -
28.05.2018 03:00:00 24,4 17,1 8 4 O 1016,1 -
28.05.2018 02:00:00 24,3 17,2 9 5 NNE 1016,3 0,0
28.05.2018 01:00:00 24,5 18,4 5 3 S 1016,6 -
28.05.2018 00:00:00 25,0 17,1 4 2 O 1016,8 -
27.05.2018 23:00:00 25,3 17,7 4 2 OSO 1016,8 -
27.05.2018 22:00:00 24,2 20,5 8 4 SSO 1016,8 -
27.05.2018 21:00:00 24,0 20,5 11 6 SSO 1016,4 -
27.05.2018 20:00:00 24,4 20,5 18 10 SSO 1016,4 0,0
27.05.2018 19:00:00 24,8 21,7 15 8 ESE 1016,4 -
27.05.2018 18:00:00 25,6 22,6 21 11 S 1016,6 -
27.05.2018 17:00:00 26,5 21,9 11 6 S 1016,9 -
27.05.2018 16:00:00 26,7 22,1 13 7 S 1017,1 -
27.05.2018 15:00:00 26,9 20,4 5 3 E 1017,4 -
27.05.2018 14:00:00 26,6 20,6 11 6 S 1017,7 0,0
27.05.2018 13:00:00 27,4 20,4 4 2 S 1018,1 -
27.05.2018 12:00:00 27,5 16,1 15 8 NNE 1018,0 -
27.05.2018 11:00:00 26,7 17,4 16 9 NNE 1017,8 -
27.05.2018 10:00:00 26,1 17,1 15 8 NNE 1017,7 -
27.05.2018 09:00:00 26,1 17,4 13 7 SSE 1017,5 -
27.05.2018 08:00:00 25,9 17,2 13 7 N 1017,2 -
27.05.2018 07:00:00 24,6 17,5 11 6 NNO 1017,0 -
27.05.2018 06:00:00 24,1 16,5 11 6 NNO 1016,9 -
27.05.2018 05:00:00 24,2 17,6 9 5 ONO 1016,8 -
27.05.2018 04:00:00 23,5 19,2 2 1 ENE 1016,7 -
27.05.2018 03:00:00 24,0 18,1 8 4 NO 1016,4 -
27.05.2018 02:00:00 24,5 18,6 4 2 NNO 1016,8 0,0
27.05.2018 01:00:00 24,9 19,0 5 3 SSO 1017,0 -
27.05.2018 00:00:00 24,5 19,5 5 3 N 1017,7 -
26.05.2018 23:00:00 23,1 20,6 4 2 SO 1017,6 -
26.05.2018 22:00:00 23,8 19,9 8 4 SSO 1017,3 -
26.05.2018 21:00:00 24,0 21,5 8 4 S 1016,8 -
26.05.2018 20:00:00 24,6 20,9 9 5 SSO 1016,5 0,0
26.05.2018 19:00:00 26,7 20,5 4 2 SE 1016,1 -
26.05.2018 18:00:00 26,3 20,1 5 3 NO 1016,3 -
26.05.2018 17:00:00 26,9 20,2 8 4 ESE 1016,6 -
26.05.2018 16:00:00 27,6 19,6 4 2 ESE 1016,3 -
26.05.2018 15:00:00 27,4 20,4 4 2 O 1016,5 -
26.05.2018 14:00:00 27,0 19,8 4 2 NO 1016,8 -
26.05.2018 13:00:00 26,5 20,1 5 3 S 1017,0 -
26.05.2018 12:00:00 26,2 19,8 9 5 NE 1017,0 -
26.05.2018 11:00:00 26,1 19,2 13 7 NNE 1016,7 -
26.05.2018 10:00:00 25,7 18,3 11 6 NNE 1016,4 -
26.05.2018 09:00:00 26,0 17,3 4 2 NNO 1016,1 -
26.05.2018 08:00:00 25,8 17,9 4 2 NNE 1015,7 -
26.05.2018 07:00:00 24,0 16,4 4 2 O 1015,3 -
26.05.2018 06:00:00 23,4 14,6 11 6 NNO 1014,9 -
26.05.2018 05:00:00 23,1 15,8 11 6 NNO 1014,4 -
26.05.2018 04:00:00 24,0 14,9 4 2 NO 1014,6 -
26.05.2018 03:00:00 24,3 14,0 5 3 ONO 1014,3 -
26.05.2018 02:00:00 24,0 16,9 2 1 SO 1014,4 0,0
26.05.2018 01:00:00 23,7 17,6 5 3 NNO 1014,5 -
26.05.2018 00:00:00 23,1 17,5 8 4 NO 1014,8 -
25.05.2018 23:00:00 23,4 18,2 4 2 NO 1014,6 -
25.05.2018 22:00:00 22,7 20,0 8 4 N 1014,4 -
25.05.2018 21:00:00 23,2 21,0 16 9 SSO 1013,8 -
25.05.2018 20:00:00 23,8 20,9 15 8 S 1013,6 0,0
25.05.2018 19:00:00 24,9 21,1 16 9 S 1013,4 -
25.05.2018 18:00:00 25,5 20,7 21 11 N 1013,1 -
25.05.2018 17:00:00 25,7 20,7 22 12 S 1013,3 -
25.05.2018 16:00:00 26,1 18,7 21 11 NO 1013,4 -
25.05.2018 15:00:00 26,3 17,6 22 12 S 1013,5 -
25.05.2018 14:00:00 25,7 18,8 24 13 S 1013,7 0,0
25.05.2018 13:00:00 25,2 18,3 21 11 S 1013,9 -
25.05.2018 12:00:00 24,9 18,8 18 10 S 1014,0 -
25.05.2018 11:00:00 24,6 18,0 11 6 S 1014,1 -
25.05.2018 10:00:00 23,7 18,7 13 7 S 1014,2 -
25.05.2018 09:00:00 23,4 17,8 8 4 S 1014,1 -
25.05.2018 08:00:00 23,0 17,6 4 2 SSE 1013,9 0,0
25.05.2018 07:00:00 22,4 17,0 4 2 N 1013,8 -
25.05.2018 06:00:00 22,2 16,4 8 4 ONO 1013,6 -
25.05.2018 05:00:00 22,5 16,2 8 4 ONO 1013,5 -
25.05.2018 04:00:00 22,0 16,9 9 5 NO 1013,8 -
25.05.2018 03:00:00 22,2 17,1 8 4 NO 1013,9 -
25.05.2018 02:00:00 22,9 17,5 5 3 O 1014,1 0,0
25.05.2018 01:00:00 22,4 17,7 4 2 NNO 1014,7 -
25.05.2018 00:00:00 22,4 16,1 8 4 SSO 1014,8 -
24.05.2018 23:00:00 22,5 16,7 9 5 N 1015,1 -
24.05.2018 22:00:00 22,8 17,4 2 1 OSO 1015,0 -
24.05.2018 21:00:00 23,0 17,8 2 1 SSE 1014,7 -
24.05.2018 20:00:00 24,1 19,7 2 1 E 1014,5 0,0
24.05.2018 19:00:00 24,6 19,4 9 5 SSE 1014,2 -
24.05.2018 18:00:00 24,9 20,7 21 11 S 1014,4 -
24.05.2018 17:00:00 26,3 19,9 9 5 SSE 1014,6 -
24.05.2018 16:00:00 26,8 19,4 8 4 ESE 1015,0 -
24.05.2018 15:00:00 25,9 19,0 15 8 ENE 1015,4 -
24.05.2018 14:00:00 25,3 18,9 22 12 NNE 1015,4 0,0
24.05.2018 13:00:00 25,0 17,6 16 9 NNE 1015,4 -
24.05.2018 12:00:00 25,4 19,0 13 7 NE 1015,7 -
24.05.2018 11:00:00 24,4 17,6 8 4 OSO 1015,8 -
24.05.2018 10:00:00 23,8 17,0 11 6 S 1015,7 -
24.05.2018 09:00:00 23,3 17,2 8 4 SSE 1016,0 -
24.05.2018 08:00:00 22,4 17,9 5 3 NO 1015,3 0,0
24.05.2018 07:00:00 21,8 19,3 4 2 S 1015,2 -
24.05.2018 06:00:00 21,5 19,0 4 2 SSO 1014,9 -
24.05.2018 05:00:00 21,6 18,7 2 1 SSO 1014,5 -
24.05.2018 04:00:00 22,3 18,4 9 5 O 1014,6 -
24.05.2018 03:00:00 21,3 18,6 8 4 O 1014,7 -
24.05.2018 02:00:00 20,7 17,6 15 8 NO 1014,6 0,0
24.05.2018 01:00:00 21,7 18,4 8 4 OSO 1014,9 -
24.05.2018 00:00:00 21,9 19,4 5 3 NNO 1015,5 -
23.05.2018 23:00:00 22,6 20,5 4 2 SSO 1015,4 -
23.05.2018 22:00:00 22,3 20,2 4 2 NO 1015,2 -
23.05.2018 21:00:00 22,8 20,5 5 3 N 1014,4 -
23.05.2018 20:00:00 24,0 20,9 4 2 SE 1013,8 -
23.05.2018 19:00:00 24,7 21,2 15 8 NNE 1013,2 -
23.05.2018 18:00:00 24,2 20,7 26 14 NNE 1012,5 -
23.05.2018 17:00:00 25,4 20,8 13 7 ONO 1012,7 -
23.05.2018 16:00:00 25,7 21,3 13 7 ESE 1012,5 -
23.05.2018 15:00:00 26,3 21,5 9 5 ESE 1012,8 -
23.05.2018 14:00:00 26,5 21,9 8 4 ESE 1013,1 0,0
23.05.2018 13:00:00 25,9 22,3 5 3 ESE 1013,1 -
23.05.2018 12:00:00 25,7 21,5 13 7 SSE 1013,1 -
23.05.2018 11:00:00 24,7 18,8 11 6 NE 1012,8 -
23.05.2018 10:00:00 24,2 19,8 4 2 E 1012,6 -
23.05.2018 09:00:00 23,3 19,2 9 5 S 1012,4 -
23.05.2018 08:00:00 22,9 18,2 4 2 OSO 1012,1 -
23.05.2018 07:00:00 23,1 15,3 15 8 SO 1011,8 -
23.05.2018 06:00:00 21,8 17,3 13 7 SO 1011,7 -
23.05.2018 05:00:00 21,7 18,0 5 3 N 1011,5 -
23.05.2018 04:00:00 21,7 17,8 18 10 NNO 1011,4 -
23.05.2018 03:00:00 22,2 18,1 5 3 NO 1012,3 -
23.05.2018 02:00:00 22,2 18,3 26 14 NNO 1011,1 0,0
23.05.2018 01:00:00 22,8 18,9 13 7 SSE 1013,3 -
23.05.2018 00:00:00 23,3 18,3 8 4 NO 1013,5 -
22.05.2018 23:00:00 22,4 16,8 18 10 NNO 1014,0 -
22.05.2018 22:00:00 22,2 17,9 18 10 N 1013,3 -
22.05.2018 21:00:00 22,3 18,2 11 6 NNO 1013,5 -
22.05.2018 20:00:00 22,5 18,8 11 6 NNO 1013,3 0,0
22.05.2018 19:00:00 23,0 19,1 11 6 N 1013,4 -
22.05.2018 18:00:00 23,7 18,5 13 7 NNE 1013,3 -
22.05.2018 17:00:00 24,0 19,7 16 9 NNE 1013,4 -
22.05.2018 16:00:00 24,3 19,7 16 9 NNE 1013,6 -
22.05.2018 15:00:00 24,3 19,7 18 10 NNE 1013,9 -
22.05.2018 14:00:00 23,9 18,3 26 14 NNE 1014,0 0,0
22.05.2018 13:00:00 24,8 19,3 22 12 NNE 1013,8 -
22.05.2018 12:00:00 24,1 19,5 22 12 NNE 1014,3 -
22.05.2018 11:00:00 24,1 20,8 24 13 NNE 1014,4 -
22.05.2018 10:00:00 23,8 19,7 22 12 NNE 1013,9 -

tt = Temperatura
td = dewpoint
ff = velocità del vento
dd = direzione del vento
ppp = reduced air pressure
rr = precipitazioni

Stazioni seguenti

WeatherPro
AMSI
MeteoEarth